Regional Weather Roundup
Issued by NWS

Home | Current Version | Previous Version | Graphics & Text | Print | Product List | Glossary On
Versions: 1 2 3 4 5 6 7 8 9 10 11 12 13 14 15 16 17 18 19 20 21 22 23 24 25 26 27 28 29 30 31 32 33 34 35 36 37 38 39 40 41 42 43 44 45 46 47 48 49 50
000
ASUS43 KLMK 052010
RWRKY
KENTUCKY REGIONAL WEATHER ROUNDUP
NATIONAL WEATHER SERVICE LOUISVILLE KY
400 PM EDT THU MAY 05 2016

NOTE "FAIR" INDICATES FEW OR NO CLOUDS BELOW 12,000 FEET
WITH NO SIGNIFICANT WEATHER AND/OR OBSTRUCTIONS TO VISIBILITY.

KYZ001>023-026-027-061>063-070>075-052100-
WESTERN AND SOUTH CENTRAL KENTUCKY

CITY           SKY/WX    TMP DP  RH WIND       PRES   REMARKS
PADUCAH        MOSUNNY   65  44  46 N15G25    29.97S
HENDERSON      CLOUDY    57  43  58 NW9       29.96S
OWENSBORO      CLOUDY    57  44  62 N12G20    29.95R
HOPKINSVILLE   MOSUNNY   55  41  58 NW12G17   29.95R
BOWLING GREEN  PTSUNNY   60  40  47 N8        29.91S
GLASGOW        NOT AVBL
$$

KYZ024-025-028>034-038-045-046-053-052100-
NORTH CENTRAL KENTUCKY

CITY           SKY/WX    TMP DP  RH WIND       PRES   REMARKS
LOUISVILLE/SDF PTSUNNY   57  43  59 N20G28    29.90S
LOUISVILLE/LOU CLOUDY    54  42  64 NW10      29.91S
FORT KNOX      CLOUDY    53  42  66 N14       29.89S
$$

KYZ035>037-039>044-047>052-055>060-089>105-052100-
NORTHEAST KENTUCKY

CITY           SKY/WX    TMP DP  RH WIND       PRES   REMARKS
LEXINGTON      CLOUDY    54  39  57 NW13      29.86R
COVINGTON      CLOUDY    51  44  77 NW10      29.87S
FRANKFORT      CLOUDY    55  40  56 N12       29.87R
$$

KYZ054-064>069-076>088-106>120-052100-
SOUTHEAST KENTUCKY

CITY           SKY/WX    TMP DP  RH WIND       PRES   REMARKS
JACKSON        PTSUNNY   52  37  56 VRB6      29.81S
LONDON         CLOUDY    52  38  58 N17G24    29.83R
SOMERSET       NOT AVBL
MIDDLESBORO    LGT RAIN  52  44  75 N12       29.82R
MONTICELLO     CLOUDY    51  42  71 N15G22    29.89R
$$





USA.gov is the U.S. government's official web portal to all federal, state and local government web resources and services.